Simultaneous Nadir Overpasses (SNOs) Predictions

Prediction of SNOs between AQUA and NPP Satellite Orbit:

Table of predicted SNOs for the next 14.0 days since TLE Epoch: 4/23/2016
Index Date (AQUA) Time (AQUA) Lat,Lon (AQUA) SZA (AQUA ) Date (NPP) Time (NPP) Lat,Lon (NPP) SZA (NPP ) Distance(km) Time Diff (sec)
1 04/24/2016 21:50:19 73.89, 86.09 86.52 04/24/2016 21:49:29 73.88, 86.02 86.58 2.25 50
2 04/24/2016 22:39:13 -75.61,-101.93 95.41 04/24/2016 22:39:39 -75.61,-101.89 95.44 1.17 26
3 04/27/2016 14:06:32 74.56,-156.45 84.92 04/27/2016 14:06:11 74.55,-156.50 84.95 1.68 21
4 04/27/2016 14:55:29 -76.10, 15.44 96.84 04/27/2016 14:56:24 -76.11, 15.51 96.90 2.08 55
5 04/30/2016 05:33:51 -73.57, 149.53 94.82 04/30/2016 05:32:42 -73.56, 149.49 94.74 1.46 69
6 04/30/2016
